G7JIF Weather Reports


Display with metric or nautical units.
time (UTC)temp
F
wind
direction
speed
MPH
gust
MPH
rain 1hr
in
rain 24hr
in
rain mn
in
humidity
%
barometer
mb
20200920074208 58 0 6.0 11.0 0.00 0.00 0.00 89 1014.9
20200920073709 58 0 6.0 11.0 0.00 0.00 0.00 89 1014.9
20200920073207 58 0 5.0 11.0 0.00 0.00 0.00 89 1014.9
20200920072708 58 68 3.0 11.0 0.00 0.00 0.00 90 1014.9
20200920072208 58 292 6.0 11.0 0.00 0.00 0.00 90 1014.9
20200920071710 58 0 6.0 11.0 0.00 0.00 0.00 90 1014.9
20200920071211 58 315 11.0 10.0 0.00 0.00 0.00 91 1014.9
20200920070708 57 338 6.0 9.0 0.00 0.00 0.00 91 1014.9
20200920070210 57 0 3.0 9.0 0.00 0.00 0.00 92 1014.9
20200920065726 57 338 6.0 11.0 0.00 0.00 0.00 92 1014.9
20200920065208 57 22 6.0 11.0 0.00 0.00 0.00 92 1014.9
20200920064711 56 338 3.0 11.0 0.00 0.00 0.00 92 1014.9
20200920064206 56 315 11.0 11.0 0.00 0.00 0.00 92 1014.9
20200920063730 56 338 4.0 11.0 0.00 0.00 0.00 92 1014.9
20200920063207 56 315 3.0 11.0 0.00 0.00 0.00 92 1014.9
20200920062725 56 292 6.0 11.0 0.00 0.00 0.00 92 1014.9
20200920062230 56 0 11.0 10.0 0.00 0.00 0.00 92 1013.9
20200920061709 56 292 6.0 13.0 0.00 0.00 0.00 92 1013.9
20200920061211 56 0 8.0 13.0 0.00 0.00 0.00 92 1013.9
20200920060708 56 0 8.0 13.0 0.00 0.00 0.00 92 1013.9
20200920060209 56 315 13.0 7.0 0.00 0.00 0.00 92 1013.9
20200920055734 56 338 7.0 13.0 0.00 0.00 0.00 91 1013.9
20200920055212 56 338 4.0 13.0 0.00 0.00 0.00 91 1013.9
20200920054708 56 338 5.0 13.0 0.00 0.00 0.00 91 1013.9
20200920054210 56 22 13.0 10.0 0.00 0.00 0.00 91 1013.9
20200920053713 56 22 3.0 10.0 0.00 0.00 0.00 91 1013.9
20200920053218 56 0 6.0 9.0 0.00 0.00 0.00 91 1013.9
20200920052710 56 0 7.0 9.0 0.00 0.00 0.00 91 1013.9
20200920052208 56 45 4.0 9.0 0.00 0.00 0.00 91 1014.9
20200920051708 56 0 4.0 9.0 0.00 0.00 0.00 91 1014.9
20200920051218 56 338 5.0 8.0 0.00 0.00 0.00 91 1014.9
20200920050707 56 292 4.0 9.0 0.00 0.00 0.00 90 1014.9
20200920050208 56 292 3.0 9.0 0.00 0.00 0.00 90 1014.9
20200920045709 56 0 2.0 10.0 0.00 0.00 0.00 90 1014.9
20200920045208 56 158 3.0 10.0 0.00 0.00 0.00 90 1014.9
20200920044720 56 22 8.0 12.0 0.00 0.00 0.00 90 1014.9
20200920044209 56 45 4.0 12.0 0.00 0.00 0.00 91 1014.9
20200920043709 56 338 6.0 12.0 0.00 0.00 0.00 91 1013.9
20200920043207 56 0 5.0 12.0 0.00 0.00 0.00 91 1013.9
20200920042711 56 338 6.0 9.0 0.00 0.00 0.00 91 1013.9
20200920042208 56 22 6.0 10.0 0.00 0.00 0.00 91 1013.9
20200920041710 56 315 4.0 10.0 0.00 0.00 0.00 91 1013.9
20200920041208 56 0 6.0 10.0 0.00 0.00 0.00 91 1013.9
20200920040708 56 0 4.0 9.0 0.00 0.00 0.00 91 1013.9
20200920040212 56 0 5.0 9.0 0.00 0.00 0.00 90 1013.9
20200920035713 57 0 4.0 10.0 0.00 0.00 0.00 90 1013.9
20200920035215 57 315 4.0 10.0 0.00 0.00 0.00 90 1013.9
20200920034709 57 0 4.0 10.0 0.00 0.00 0.00 91 1013.9
20200920034209 57 315 7.0 10.0 0.00 0.00 0.00 91 1013.9
20200920033714 57 338 3.0 10.0 0.00 0.00 0.00 91 1013.9
20200920033207 57 315 6.0 10.0 0.00 0.00 0.00 91 1013.9
20200920032707 57 270 10.0 6.0 0.00 0.00 0.00 91 1013.9
20200920032208 56 0 5.0 9.0 0.00 0.00 0.00 91 1013.9
20200920031709 56 315 2.0 9.0 0.00 0.00 0.00 91 1013.9
20200920031208 56 45 5.0 9.0 0.00 0.00 0.00 91 1013.9
20200920030709 56 22 8.0 9.0 0.00 0.00 0.00 91 1013.9
20200920030210 56 338 6.0 10.0 0.00 0.00 0.00 90 1013.9
20200920025708 56 338 6.0 10.0 0.00 0.00 0.00 90 1013.9
20200920025214 56 338 9.0 10.0 0.00 0.00 0.00 90 1013.9
20200920024712 56 338 6.0 7.0 0.00 0.00 0.00 89 1013.9
20200920024210 57 338 6.0 10.0 0.00 0.00 0.00 89 1013.9
20200920023708 57 315 7.0 10.0 0.00 0.00 0.00 89 1013.9
20200920023208 57 0 6.0 10.0 0.00 0.00 0.00 89 1013.9
20200920022709 57 45 5.0 8.0 0.00 0.00 0.00 88 1013.9
20200920022210 57 0 5.0 10.0 0.00 0.00 0.00 88 1013.9
20200920021712 57 338 7.0 10.0 0.00 0.00 0.00 87 1013.9
20200920021219 57 338 4.0 10.0 0.00 0.00 0.00 87 1013.9
20200920020707 57 0 3.0 9.0 0.00 0.00 0.00 87 1013.9
20200920020208 57 315 6.0 9.0 0.00 0.00 0.00 87 1013.9
20200920015712 57 338 5.0 7.0 0.00 0.00 0.00 86 1013.9
20200920015207 57 0 7.0 7.0 0.00 0.00 0.00 86 1013.9
20200920014713 57 22 4.0 10.0 0.00 0.00 0.00 86 1013.9
20200920014206 58 315 4.0 10.0 0.00 0.00 0.00 84 1013.9
20200920013711 58 22 4.0 10.0 0.00 0.00 0.00 84 1013.9
20200920013207 58 22 6.0 6.0 0.00 0.00 0.00 84 1013.9
20200920012734 58 338 6.0 6.0 0.00 0.00 0.00 84 1013.9
20200920012208 58 0 1.0 8.0 0.00 0.00 0.00 83 1013.9
20200920011708 58 45 6.0 8.0 0.00 0.00 0.00 83 1013.9
20200920011210 58 22 4.0 8.0 0.00 0.00 0.00 82 1013.9
20200920010713 58 292 8.0 6.0 0.00 0.00 0.00 82
20200920005707 58 338 5.0 10.0 0.00 0.00 0.00 82 1013.9
20200920005209 58 315 4.0 10.0 0.00 0.00 0.00 82 1013.9
20200920004736 58 315 8.0 10.0 0.00 0.00 0.00 82 1013.9
20200920004208 59 315 4.0 10.0 0.00 0.00 0.00 81 1013.9
20200920003707 59 22 2.0 10.0 0.00 0.00 0.00 81 1013.9
20200920003229 59 45 7.0 8.0 0.00 0.00 0.00 81 1013.9
20200920002707 59 338 4.0 8.0 0.00 0.00 0.00 81 1013.9
20200920002209 59 315 4.0 7.0 0.00 0.00 0.00 80 1013.9
20200920001724 59 292 4.0 7.0 0.00 0.00 0.00 79 1013.9
20200920001209 59 292 2.0 7.0 0.00 0.00 0.00 79 1013.9
20200920000707 59 315 7.0 8.0 0.00 0.00 0.00 79 1013.9
20200920000225 59 22 5.0 8.0 0.00 0.00 0.00 79 1013.9
20200919235713 59 45 3.0 8.0 0.00 0.00 0.00 78 1013.9
20200919235225 60 0 5.0 8.0 0.00 0.00 0.00 78 1013.9
20200919234711 60 0 6.0 8.0 0.00 0.00 0.00 78 1013.9
20200919234215 60 338 6.0 8.0 0.00 0.00 0.00 78 1013.9
20200919233719 60 315 8.0 8.0 0.00 0.00 0.00 78 1013.9
20200919233211 60 315 3.0 8.0 0.00 0.00 0.00 78 1013.9
20200919232707 60 0 8.0 10.0 0.00 0.00 0.00 76 1013.9
20200919232209 60 270 1.0 13.0 0.00 0.00 0.00 76 1013.9
20200919231708 60 315 3.0 13.0 0.00 0.00 0.00 76 1013.9
20200919231208 60 0 10.0 13.0 0.00 0.00 0.00 76 1013.9
20200919230710 60 315 13.0 10.0 0.00 0.00 0.00 76 1013.9
20200919230210 61 22 10.0 9.0 0.00 0.00 0.00 76 1013.9
20200919225707 61 22 6.0 6.0 0.00 0.00 0.00 76 1013.9
20200919225208 61 315 4.0 8.0 0.00 0.00 0.00 76 1013.9
20200919224717 61 292 4.0 8.0 0.00 0.00 0.00 75 1013.9
20200919224211 61 315 6.0 8.0 0.00 0.00 0.00 76 1013.9
20200919223720 61 338 8.0 10.0 0.00 0.00 0.00 75 1013.9
20200919223208 61 338 6.0 10.0 0.00 0.00 0.00 74 1013.9
20200919222710 62 315 8.0 10.0 0.00 0.00 0.00 74 1013.9
20200919222211 62 338 10.0 11.0 0.00 0.00 0.00 74 1012.9
20200919221709 62 45 3.0 11.0 0.00 0.00 0.00 73 1012.9
20200919221209 62 315 6.0 11.0 0.00 0.00 0.00 74 1012.9
20200919220712 62 315 6.0 11.0 0.00 0.00 0.00 73 1013.9
20200919220211 62 315 6.0 9.0 0.00 0.00 0.00 72 1013.9
20200919215719 62 338 7.0 6.0 0.00 0.00 0.00 72 1013.9
20200919215207 62 45 6.0 8.0 0.00 0.00 0.00 71 1012.9
20200919214716 63 338 6.0 8.0 0.00 0.00 0.00 70 1012.9
20200919214208 63 0 4.0 8.0 0.00 0.00 0.00 69 1012.9
20200919213708 63 315 4.0 8.0 0.00 0.00 0.00 68 1013.9
20200919213210 63 270 4.0 8.0 0.00 0.00 0.00 68 1013.9
20200919212711 63 22 8.0 8.0 0.00 0.00 0.00 68 1013.9
20200919212210 63 22 5.0 8.0 0.00 0.00 0.00 67 1012.9
20200919211711 64 22 4.0 8.0 0.00 0.00 0.00 66 1012.9
20200919211209 64 315 4.0 10.0 0.00 0.00 0.00 66 1012.9
20200919210708 64 338 3.0 10.0 0.00 0.00 0.00 65 1012.9
20200919210208 64 292 8.0 10.0 0.00 0.00 0.00 64 1012.9
20200919205711 64 338 4.0 9.0 0.00 0.00 0.00 62 1012.9
20200919205214 64 22 6.0 9.0 0.00 0.00 0.00 60 1012.9
20200919204717 65 338 2.0 9.0 0.00 0.00 0.00 59 1012.9
20200919204212 65 45 6.0 6.0 0.00 0.00 0.00 56 1012.9
20200919203707 65 0 4.0 6.0 0.00 0.00 0.00 56 1012.9
20200919203207 65 315 6.0 6.0 0.00 0.00 0.00 56 1012.9
20200919202708 65 45 4.0 8.0 0.00 0.00 0.00 56 1012.9
20200919202208 65 315 4.0 8.0 0.00 0.00 0.00 56 1012.9
20200919201711 65 338 6.0 8.0 0.00 0.00 0.00 56 1012.9
20200919201208 65 338 6.0 6.0 0.00 0.00 0.00 56 1012.9
20200919200710 65 45 3.0 6.0 0.00 0.00 0.00 55 1012.9
20200919200209 65 0 2.0 6.0 0.00 0.00 0.00 55 1012.9
20200919195712 66 338 6.0 6.0 0.00 0.00 0.00 55 1012.9
20200919195207 66 338 4.0 6.0 0.00 0.00 0.00 55 1012.9
20200919194712 66 248 6.0 6.0 0.00 0.00 0.00 55 1012.9
20200919194211 66 338 3.0 6.0 0.00 0.00 0.00 54 1012.9
20200919193709 66 0 4.0 6.0 0.00 0.00 0.00 54 1011.9
20200919193208 66 315 3.0 6.0 0.00 0.00 0.00 54 1011.9
20200919192707 66 315 4.0 6.0 0.00 0.00 0.00 54 1011.9
20200919192208 66 0 6.0 6.0 0.00 0.00 0.00 54 1011.9
20200919191713 66 45 3.0 6.0 0.00 0.00 0.00 55 1011.9
20200919191207 67 45 3.0 6.0 0.00 0.00 0.00 55 1011.9
20200919190711 67 0 3.0 6.0 0.00 0.00 0.00 55 1011.9
20200919190216 67 22 3.0 6.0 0.00 0.00 0.00 55 1011.9
20200919185709 67 315 3.0 6.0 0.00 0.00 0.00 55 1011.9
20200919185207 67 315 3.0 5.0 0.00 0.00 0.00 55 1011.9
20200919184710 67 338 4.0 4.0 0.00 0.00 0.00 55 1011.9
20200919184208 67 22 3.0 4.0 0.00 0.00 0.00 55 1011.9
20200919183732 67 338 4.0 4.0 0.00 0.00 0.00 54 1011.9
20200919183212 67 22 2.0 4.0 0.00 0.00 0.00 54 1011.9
20200919182708 67 22 3.0 4.0 0.00 0.00 0.00 54 1011.9
20200919182216 68 315 0.0 4.0 0.00 0.00 0.00 53 1011.9
20200919181710 68 315 2.0 6.0 0.00 0.00 0.00 53 1011.9
20200919181208 68 22 3.0 6.0 0.00 0.00 0.00 53 1011.9
20200919180708 68 22 2.0 7.0 0.00 0.00 0.00 52 1011.9
20200919180208 68 338 2.0 7.0 0.00 0.00 0.00 52 1011.9
20200919175708 68 90 3.0 7.0 0.00 0.00 0.00 52 1011.9
20200919175217 69 0 2.0 7.0 0.00 0.00 0.00 52 1011.9
20200919174709 69 315 2.0 7.0 0.00 0.00 0.00 52 1011.9
20200919174210 69 22 4.0 6.0 0.00 0.00 0.00 52 1011.9
20200919173717 69 22 4.0 7.0 0.00 0.00 0.00 52 1010.9
20200919173208 69 338 4.0 7.0 0.00 0.00 0.00 52 1010.9
20200919172708 69 45 3.0 8.0 0.00 0.00 0.00 52 1010.9
20200919172208 69 45 4.0 8.0 0.00 0.00 0.00 52 1010.9
20200919171734 69 68 6.0 8.0 0.00 0.00 0.00 52 1010.9
20200919171212 69 45 3.0 6.0 0.00 0.00 0.00 52 1010.9
20200919170711 69 45 3.0 6.0 0.00 0.00 0.00 52 1010.9
20200919170209 70 22 5.0 7.0 0.00 0.00 0.00 52 1010.9
20200919165708 70 292 4.0 7.0 0.00 0.00 0.00 51 1010.9
20200919165211 70 22 5.0 7.0 0.00 0.00 0.00 51 1010.9
20200919164717 70 90 3.0 7.0 0.00 0.00 0.00 51 1010.9
20200919164208 70 45 4.0 6.0 0.00 0.00 0.00 51 1010.9
20200919163708 70 315 1.0 6.0 0.00 0.00 0.00 51 1010.9
20200919163208 71 45 6.0 7.0 0.00 0.00 0.00 51 1010.9
20200919162705 71 22 5.0 7.0 0.00 0.00 0.00 51 1010.9
20200919162210 71 180 2.0 7.0 0.00 0.00 0.00 52 1010.9
20200919161711 71 45 4.0 7.0 0.00 0.00 0.00 51 1010.9
20200919161208 71 45 5.0 7.0 0.00 0.00 0.00 51 1010.9
20200919160710 71 315 4.0 9.0 0.00 0.00 0.00 51 1010.9
20200919160209 71 338 3.0 9.0 0.00 0.00 0.00 51 1010.9
20200919155708 71 22 6.0 13.0 0.00 0.00 0.00 51 1010.9
20200919155208 71 0 4.0 13.0 0.00 0.00 0.00 51 1010.9
20200919154709 71 68 4.0 13.0 0.00 0.00 0.00 51 1010.9
20200919154211 71 22 8.0 13.0 0.00 0.00 0.00 51 1010.9
20200919153707 71 22 8.0 13.0 0.00 0.00 0.00 51 1010.9
20200919153222 71 45 4.0 10.0 0.00 0.00 0.00 51 1010.9
20200919152707 71 0 3.0 10.0 0.00 0.00 0.00 52 1010.9
20200919152218 71 45 6.0 8.0 0.00 0.00 0.00 52 1010.9
20200919151711 71 45 6.0 9.0 0.00 0.00 0.00 51 1010.9
20200919151215 71 22 4.0 13.0 0.00 0.00 0.00 52 1010.9
20200919150708 71 68 4.0 13.0 0.00 0.00 0.00 52 1010.9
20200919150208 71 22 4.0 13.0 0.00 0.00 0.00 51 1010.9
20200919145709 71 0 12.0 11.0 0.00 0.00 0.00 50 1010.9
20200919145208 71 90 4.0 11.0 0.00 0.00 0.00 51 1010.9
20200919144712 71 45 5.0 8.0 0.00 0.00 0.00 52 1010.9
20200919144223 71 22 6.0 8.0 0.00 0.00 0.00 52 1010.9
20200919143735 71 22 8.0 8.0 0.00 0.00 0.00 52 1010.9
20200919143208 71 45 6.0 8.0 0.00 0.00 0.00 51 1010.9
20200919142708 71 45 6.0 10.0 0.00 0.00 0.00 51 1010.9
20200919142210 71 45 8.0 13.0 0.00 0.00 0.00 51 1010.9
20200919141713 71 22 8.0 13.0 0.00 0.00 0.00 51 1010.9
20200919141208 71 45 6.0 13.0 0.00 0.00 0.00 51 1010.9
20200919140707 71 22 4.0 13.0 0.00 0.00 0.00 51 1010.9
20200919140213 71 45 7.0 13.0 0.00 0.00 0.00 51 1010.9
20200919135708 71 315 6.0 13.0 0.00 0.00 0.00 51 1010.9
20200919135208 71 292 8.0 11.0 0.00 0.00 0.00 52 1010.9
20200919134710 71 22 4.0 11.0 0.00 0.00 0.00 52 1010.9
20200919134214 71 315 6.0 10.0 0.00 0.00 0.00 52 1010.9
20200919133720 71 0 7.0 10.0 0.00 0.00 0.00 52 1010.9
20200919133225 71 45 5.0 11.0 0.00 0.00 0.00 51 1010.9
20200919132712 71 90 8.0 11.0 0.00 0.00 0.00 51 1010.9
20200919132214 71 22 10.0 11.0 0.00 0.00 0.00 51 1010.9
20200919131729 71 22 6.0 12.0 0.00 0.00 0.00 52 1010.9
20200919131207 71 45 4.0 14.0 0.00 0.00 0.00 53 1010.9
20200919130709 71 22 6.0 14.0 0.00 0.00 0.00 52 1011.9
20200919130211 70 45 6.0 14.0 0.00 0.00 0.00 52 1011.9
20200919125707 70 22 13.0 13.0 0.00 0.00 0.00 52 1011.9
20200919125209 70 45 3.0 13.0 0.00 0.00 0.00 52 1011.9
20200919124712 70 45 5.0 13.0 0.00 0.00 0.00 52 1011.9
20200919124209 70 22 4.0 12.0 0.00 0.00 0.00 52 1011.9
20200919123712 71 68 10.0 10.0 0.00 0.00 0.00 53 1011.9
20200919123211 70 22 9.0 9.0 0.00 0.00 0.00 53 1011.9
20200919122709 70 315 8.0 11.0 0.00 0.00 0.00 55 1011.9
20200919122209 70 68 3.0 11.0 0.00 0.00 0.00 54 1011.9
20200919121709 70 22 3.0 11.0 0.00 0.00 0.00 55 1011.9
20200919121208 70 68 9.0 11.0 0.00 0.00 0.00 57 1011.9
20200919120712 69 338 10.0 11.0 0.00 0.00 0.00 56 1011.9
20200919120210 69 45 8.0 11.0 0.00 0.00 0.00 56 1011.9
20200919115715 69 45 11.0 13.0 0.00 0.00 0.00 58 1011.9
20200919115207 69 338 4.0 13.0 0.00 0.00 0.00 59 1011.9
20200919114713 68 315 1.0 13.0 0.00 0.00 0.00 58 1011.9
20200919114210 68 315 10.0 13.0 0.00 0.00 0.00 59 1011.9
20200919113712 68 338 8.0 13.0 0.00 0.00 0.00 60 1011.9
20200919113210 68 0 6.0 13.0 0.00 0.00 0.00 59 1011.9
20200919112713 68 338 7.0 12.0 0.00 0.00 0.00 60 1011.9
20200919112210 68 0 6.0 13.0 0.00 0.00 0.00 63 1011.9
20200919111708 68 292 3.0 13.0 0.00 0.00 0.00 63 1011.9
20200919111208 67 45 4.0 13.0 0.00 0.00 0.00 62 1011.9
20200919110714 67 45 6.0 12.0 0.00 0.00 0.00 66 1012.9
20200919110211 66 338 5.0 12.0 0.00 0.00 0.00 66 1012.9
20200919105714 66 45 3.0 12.0 0.00 0.00 0.00 66 1012.9
20200919105212 66 112 6.0 10.0 0.00 0.00 0.00 67 1012.9
20200919104708 65 338 10.0 8.0 0.00 0.00 0.00 67 1012.9
20200919104211 65 338 6.0 8.0 0.00 0.00 0.00 67 1012.9
20200919103718 65 338 4.0 10.0 0.00 0.00 0.00 67 1012.9
20200919103207 65 338 4.0 10.0 0.00 0.00 0.00 68 1012.9
20200919102710 65 338 4.0 10.0 0.00 0.00 0.00 66 1012.9
20200919102210 65 0 6.0 13.0 0.00 0.00 0.00 67 1012.9
20200919101709 64 0 6.0 13.0 0.00 0.00 0.00 67 1012.9
20200919101208 64 338 10.0 13.0 0.00 0.00 0.00 68 1012.9
20200919100707 64 22 11.0 13.0 0.00 0.00 0.00 68 1012.9
20200919100216 63 315 5.0 13.0 0.00 0.00 0.00 69 1012.9
20200919095718 63 338 4.0 12.0 0.00 0.00 0.00 70 1012.9
20200919095207 63 338 12.0 12.0 0.00 0.00 0.00 69 1012.9
20200919094709 63 292 8.0 11.0 0.00 0.00 0.00 71 1012.9
20200919094208 62 112 3.0 11.0 0.00 0.00 0.00 72 1012.9
20200919093714 62 315 10.0 11.0 0.00 0.00 0.00 73 1012.9
20200919093208 62 68 11.0 13.0 0.00 0.00 0.00 73 1012.9
20200919092708 62 292 4.0 13.0 0.00 0.00 0.00 76 1012.9
20200919092222 61 292 3.0 13.0 0.00 0.00 0.00 76 1012.9
20200919091710 61 270 13.0 10.0 0.00 0.00 0.00 76 1012.9
20200919091216 61 338 9.0 14.0 0.00 0.00 0.00 78 1012.9
20200919090710 60 338 10.0 14.0 0.00 0.00 0.00 79 1012.9
20200919090208 60 45 3.0 14.0 0.00 0.00 0.00 80 1012.9
20200919085719 60 0 4.0 12.0 0.00 0.00 0.00 80 1012.9
20200919085212 59 0 6.0 12.0 0.00 0.00 0.00 80 1012.9
20200919084737 59 338 6.0 12.0 0.00 0.00 0.00 83 1012.9
20200919084209 58 22 7.0 12.0 0.00 0.00 0.00 83 1012.9
20200919083708 58 292 10.0 13.0 0.00 0.00 0.00 84 1013.9
20200919083214 58 0 4.0 13.0 0.00 0.00 0.00 86 1013.9
20200919082713 58 45 3.0 13.0 0.00 0.00 0.00 86 1013.9
20200919082208 57 45 6.0 12.0 0.00 0.00 0.00 88 1012.9
20200919081706 57 292 7.0 12.0 0.00 0.00 0.00 88 1012.9
20200919081208 57 338 6.0 14.0 0.00 0.00 0.00 89 1012.9
20200919080707 56 22 6.0 14.0 0.00 0.00 0.00 88 1012.9
20200919080209 56 338 5.0 14.0 0.00 0.00 0.00 89 1012.9
20200919075714 56 338 10.0 13.0 0.00 0.00 0.00 89 1012.9
20200919075207 56 45 6.0 13.0 0.00 0.00 0.00 90 1012.9
20200919074709 56 292 8.0 13.0 0.00 0.00 0.00 90 1012.9